Location: Nebula Knoll Observatory
(43.6666°N, 71.0000°W)
Time: 10:02:08
(UTC-04:00)

Cosmos 1782 - Visible Passes

Search period start: 29 July 2016 00:00
Search period end: 08 August 2016 00:00
Orbit: 540 x 556 km, 82.5° (Epoch: 28 July)

Date Brightness Start Highest point End Pass type
(mag) Time Alt. Az. Time Alt. Az. Time Alt. Az.
29 Jul 3.6 20:55:09 10° NNW 20:59:06 54° W 21:03:03 10° S visible
30 Jul 3.8 20:50:12 10° NNW 20:54:08 50° W 20:58:02 10° S visible
31 Jul 4.0 20:45:15 10° NNW 20:49:09 46° W 20:53:01 10° SSW visible
01 Aug 4.1 20:40:19 10° NNW 20:44:10 43° W 20:48:00 10° SSW visible
02 Aug 4.3 20:35:23 10° NNW 20:39:10 40° W 20:42:58 10° SSW visible
03 Aug 4.5 20:30:26 10° NNW 20:34:11 37° W 20:37:56 10° SSW visible
04 Aug 4.7 20:25:30 10° NNW 20:29:11 34° W 20:32:52 10° SSW visible
